TimeEDT,TemperatureF,Dew PointF,Humidity,Sea Level PressureIn,VisibilityMPH,Wind Direction,Wind SpeedMPH,Gust SpeedMPH,PrecipitationIn,Events,Conditions,WindDirDegrees,DateUTC
12:00 AM,39.2,32.0,75,29.85,10.0,NNW,11.5,-,N/A,,Mostly Cloudy,340,2013-03-28 04:00:00
12:53 AM,39.0,33.1,79,29.86,10.0,North,12.7,-,0.00,Rain,Light Rain,360,2013-03-28 04:53:00
1:53 AM,37.9,34.0,86,29.85,8.0,NNW,10.4,-,0.02,Rain,Light Rain,330,2013-03-28 05:53:00
2:18 AM,37.4,33.8,87,29.86,9.0,NNW,8.1,-,0.00,Rain,Light Rain,330,2013-03-28 06:18:00
2:50 AM,37.4,33.8,87,29.86,10.0,NNW,8.1,-,0.01,,Overcast,330,2013-03-28 06:50:00
2:53 AM,37.0,34.0,89,29.85,10.0,NNW,10.4,-,0.01,,Overcast,330,2013-03-28 06:53:00
3:10 AM,37.4,33.8,87,29.86,10.0,NNW,8.1,-,N/A,,Overcast,340,2013-03-28 07:10:00
3:53 AM,37.0,33.1,86,29.85,10.0,NNW,8.1,-,N/A,,Overcast,340,2013-03-28 07:53:00
4:53 AM,37.0,33.1,86,29.86,10.0,NNW,6.9,-,N/A,,Overcast,330,2013-03-28 08:53:00
5:23 AM,37.4,33.8,87,29.87,10.0,NNW,8.1,-,N/A,,Overcast,330,2013-03-28 09:23:00
5:53 AM,37.0,33.1,86,29.87,10.0,NNW,8.1,-,N/A,,Overcast,340,2013-03-28 09:53:00
6:46 AM,37.4,33.8,87,29.89,10.0,North,6.9,-,N/A,,Overcast,350,2013-03-28 10:46:00
6:53 AM,37.9,33.1,83,29.89,10.0,NNW,5.8,-,N/A,,Overcast,340,2013-03-28 10:53:00
7:53 AM,39.0,33.1,79,29.90,10.0,North,6.9,-,N/A,,Overcast,350,2013-03-28 11:53:00
8:53 AM,42.1,33.1,70,29.92,10.0,North,9.2,-,N/A,,Mostly Cloudy,360,2013-03-28 12:53:00
9:53 AM,44.1,28.9,55,29.93,10.0,NE,10.4,19.6,N/A,,Overcast,40,2013-03-28 13:53:00
10:53 AM,46.9,28.9,50,29.94,10.0,Variable,6.9,-,N/A,,Overcast,0,2013-03-28 14:53:00
11:53 AM,46.0,25.0,44,29.93,10.0,ENE,9.2,-,N/A,,Overcast,60,2013-03-28 15:53:00
12:53 PM,46.0,27.0,47,29.93,10.0,NNW,5.8,-,N/A,,Overcast,340,2013-03-28 16:53:00
1:53 PM,46.0,30.0,54,29.94,10.0,East,4.6,-,0.00,Rain,Light Rain,90,2013-03-28 17:53:00
2:53 PM,46.0,30.0,54,29.93,10.0,ENE,4.6,-,0.00,,Overcast,70,2013-03-28 18:53:00
3:53 PM,46.0,30.9,56,29.94,10.0,Calm,Calm,-,N/A,,Overcast,0,2013-03-28 19:53:00
4:53 PM,46.0,30.9,56,29.94,10.0,North,4.6,-,N/A,,Overcast,350,2013-03-28 20:53:00
5:53 PM,46.0,30.0,54,29.94,10.0,Variable,3.5,-,N/A,,Overcast,0,2013-03-28 21:53:00
6:53 PM,45.0,30.9,58,29.96,10.0,Calm,Calm,-,N/A,,Overcast,0,2013-03-28 22:53:00
7:53 PM,43.0,32.0,65,29.97,10.0,WSW,4.6,-,N/A,,Overcast,250,2013-03-28 23:53:00
8:53 PM,43.0,32.0,65,29.99,10.0,West,4.6,-,N/A,,Overcast,260,2013-03-29 00:53:00
9:53 PM,42.1,30.9,65,29.99,10.0,Calm,Calm,-,N/A,,Overcast,0,2013-03-29 01:53:00
10:53 PM,42.1,30.0,62,29.99,10.0,West,3.5,-,N/A,,Overcast,270,2013-03-29 02:53:00
11:53 PM,41.0,28.9,62,29.99,10.0,WNW,3.5,-,N/A,,Mostly Cloudy,300,2013-03-29 03:53:00